TimeEST,TemperatureF,Dew PointF,Humidity,Sea Level PressureIn,VisibilityMPH,Wind Direction,Wind SpeedMPH,Gust SpeedMPH,PrecipitationIn,Events,Conditions,WindDirDegrees,DateUTC
12:01 AM,24.1,21.9,91,30.18,1.0,NW,5.8,-,0.01,Snow,Light Snow,320,2013-12-06 05:01:00
12:14 AM,24.1,21.9,91,30.19,0.8,NW,8.1,-,0.02,Snow,Light Snow,310,2013-12-06 05:14:00
12:27 AM,24.1,21.9,91,30.19,1.0,NW,6.9,-,0.02,Snow,Light Snow,310,2013-12-06 05:27:00
12:34 AM,24.1,21.9,91,30.19,1.2,NW,6.9,-,0.02,Snow,Light Snow,310,2013-12-06 05:34:00
12:53 AM,24.1,21.0,88,30.20,0.8,NW,5.8,-,0.03,Snow,Light Snow,310,2013-12-06 05:53:00
1:12 AM,24.1,21.0,88,30.17,0.8,NW,8.1,-,0.01,Snow,Light Snow,310,2013-12-06 06:12:00
1:14 AM,24.1,21.0,88,30.17,1.0,NW,9.2,-,0.01,Snow,Light Snow,310,2013-12-06 06:14:00
1:37 AM,24.1,21.0,88,30.16,3.0,NW,8.1,-,0.01,Snow,Light Snow,310,2013-12-06 06:37:00
1:51 AM,24.8,21.2,86,30.16,9.0,WNW,4.6,-,0.01,,Overcast,300,2013-12-06 06:51:00
1:53 AM,24.1,21.0,88,30.19,10.0,WNW,4.6,-,0.01,,Overcast,300,2013-12-06 06:53:00
2:53 AM,24.1,19.0,81,30.21,5.0,NW,6.9,-,0.00,Snow,Light Snow,310,2013-12-06 07:53:00
3:21 AM,24.1,19.9,84,30.19,2.5,WNW,4.6,-,0.00,Snow,Light Snow,300,2013-12-06 08:21:00
3:30 AM,24.1,19.9,84,30.19,4.0,WNW,5.8,-,0.00,Snow,Light Snow,300,2013-12-06 08:30:00
3:53 AM,24.1,19.9,84,30.22,3.0,WNW,5.8,-,0.00,Snow,Light Snow,300,2013-12-06 08:53:00
4:53 AM,25.0,19.9,81,30.24,10.0,WNW,8.1,-,0.00,,Overcast,300,2013-12-06 09:53:00
5:53 AM,25.0,19.0,78,30.22,10.0,NW,5.8,-,N/A,,Overcast,320,2013-12-06 10:53:00
6:53 AM,25.0,19.0,78,30.25,10.0,NW,8.1,-,N/A,,Overcast,310,2013-12-06 11:53:00
7:53 AM,25.0,19.9,81,30.26,10.0,NW,5.8,-,N/A,,Overcast,320,2013-12-06 12:53:00
8:53 AM,25.0,19.0,78,30.27,9.0,NW,10.4,-,N/A,,Overcast,320,2013-12-06 13:53:00
9:53 AM,26.1,19.9,78,30.29,9.0,NW,8.1,-,N/A,,Overcast,320,2013-12-06 14:53:00
10:53 AM,26.1,19.9,78,30.32,9.0,NNW,10.4,-,N/A,,Overcast,330,2013-12-06 15:53:00
11:53 AM,27.0,19.9,75,30.30,10.0,NNW,6.9,-,N/A,,Overcast,340,2013-12-06 16:53:00
12:53 PM,27.0,21.0,78,30.27,10.0,North,8.1,-,N/A,,Overcast,360,2013-12-06 17:53:00
1:53 PM,27.0,21.0,78,30.28,10.0,NW,8.1,-,N/A,,Overcast,320,2013-12-06 18:53:00
2:43 PM,28.0,21.9,78,30.24,8.0,North,9.2,-,N/A,,Overcast,350,2013-12-06 19:43:00
2:53 PM,28.0,21.0,75,30.26,8.0,North,10.4,-,N/A,,Overcast,350,2013-12-06 19:53:00
3:15 PM,27.0,21.9,81,30.23,2.5,North,10.4,-,0.00,Snow,Light Snow,350,2013-12-06 20:15:00
3:53 PM,27.0,21.9,81,30.27,4.0,North,8.1,-,0.00,,Haze,360,2013-12-06 20:53:00
4:08 PM,28.0,21.9,78,30.26,4.0,North,8.1,-,0.00,Snow,Light Snow,350,2013-12-06 21:08:00
4:53 PM,27.0,21.0,78,30.28,10.0,North,9.2,-,0.00,,Overcast,350,2013-12-06 21:53:00
5:14 PM,27.0,21.0,78,30.27,2.0,NNW,10.4,-,0.00,Snow,Light Snow,340,2013-12-06 22:14:00
5:26 PM,27.0,21.0,78,30.28,3.0,North,10.4,-,0.00,Snow,Light Snow,350,2013-12-06 22:26:00
5:33 PM,27.0,21.0,78,30.28,4.0,North,10.4,-,0.00,Snow,Light Snow,360,2013-12-06 22:33:00
5:53 PM,27.0,21.9,81,30.30,5.0,NNW,8.1,-,0.00,Snow,Light Snow,340,2013-12-06 22:53:00
6:27 PM,27.0,21.9,81,30.30,2.0,NNW,6.9,-,0.00,Snow,Light Snow,330,2013-12-06 23:27:00
6:34 PM,26.1,21.9,84,30.31,1.2,NNW,8.1,-,0.00,Snow,Light Snow,340,2013-12-06 23:34:00
6:53 PM,26.1,21.9,84,30.33,2.5,North,8.1,-,0.00,Snow,Light Snow,350,2013-12-06 23:53:00
6:55 PM,26.1,21.9,84,30.31,3.0,North,8.1,-,0.00,Snow,Light Snow,350,2013-12-06 23:55:00
7:07 PM,26.1,21.9,84,30.32,2.0,NNW,9.2,-,0.00,Snow,Light Snow,340,2013-12-07 00:07:00
7:16 PM,26.1,21.9,84,30.31,1.5,North,10.4,-,0.01,Snow,Light Snow,350,2013-12-07 00:16:00
7:35 PM,25.0,21.9,88,30.31,2.0,North,9.2,-,0.01,Snow,Light Snow,350,2013-12-07 00:35:00
7:53 PM,25.0,21.9,88,30.35,2.0,North,8.1,-,0.01,Snow,Light Snow,350,2013-12-07 00:53:00
8:01 PM,25.0,21.9,88,30.31,3.0,North,9.2,-,0.00,Snow,Light Snow,10,2013-12-07 01:01:00
8:53 PM,25.0,21.0,85,30.35,8.0,North,-9999.0,-,0.00,Snow,Light Snow,0,2013-12-07 01:53:00
9:53 PM,25.0,21.0,85,30.39,10.0,North,-9999.0,-,0.00,,Overcast,0,2013-12-07 02:53:00
10:27 PM,25.0,19.9,81,30.37,10.0,NW,10.4,-,N/A,,Overcast,320,2013-12-07 03:27:00
10:44 PM,25.0,19.0,78,30.38,10.0,NNW,11.5,-,N/A,,Overcast,330,2013-12-07 03:44:00
10:53 PM,25.0,19.0,78,30.41,10.0,NNW,9.2,-,N/A,,Overcast,340,2013-12-07 03:53:00
11:53 PM,23.0,18.0,81,30.43,10.0,NW,10.4,-,N/A,,Overcast,310,2013-12-07 04:53:00